Year,Month,Day,Hour,Minute,Value (Times are PST for temperature in C)
2016,07,26,00,00,19.80
2016,07,26,00,01,19.70
2016,07,26,00,02,19.70
2016,07,26,00,03,19.70
2016,07,26,00,04,19.60
2016,07,26,00,05,19.60
2016,07,26,00,06,19.60
2016,07,26,00,07,19.60
2016,07,26,00,08,19.60
2016,07,26,00,09,19.50
2016,07,26,00,10,19.60
2016,07,26,00,11,19.50
2016,07,26,00,12,19.50
2016,07,26,00,13,19.50
2016,07,26,00,14,19.50
2016,07,26,00,15,19.50
2016,07,26,00,16,19.40
2016,07,26,00,17,19.40
2016,07,26,00,18,19.40
2016,07,26,00,19,19.40
2016,07,26,00,20,19.40
2016,07,26,00,21,19.40
2016,07,26,00,22,19.40
2016,07,26,00,23,19.40
2016,07,26,00,24,19.40
2016,07,26,00,25,19.40
2016,07,26,00,26,19.40
2016,07,26,00,27,19.40
2016,07,26,00,28,19.40
2016,07,26,00,29,19.40
2016,07,26,00,30,19.40
2016,07,26,00,31,19.30
2016,07,26,00,32,19.30
2016,07,26,00,33,19.30
2016,07,26,00,34,19.30
2016,07,26,00,35,19.30
2016,07,26,00,36,19.30
2016,07,26,00,37,19.30
2016,07,26,00,38,19.30
2016,07,26,00,39,19.20
2016,07,26,00,40,19.20
2016,07,26,00,41,19.20
2016,07,26,00,42,19.20
2016,07,26,00,43,19.20
2016,07,26,00,44,19.20
2016,07,26,00,45,19.20
2016,07,26,00,46,19.20
2016,07,26,00,47,19.20
2016,07,26,00,48,19.20
2016,07,26,00,49,19.20
2016,07,26,00,50,19.20
2016,07,26,00,51,19.20
2016,07,26,00,52,19.20
2016,07,26,00,53,19.20
2016,07,26,00,54,19.20
2016,07,26,00,55,19.10
2016,07,26,00,56,19.10
2016,07,26,00,57,19.10
2016,07,26,00,58,19.10
2016,07,26,00,59,19.10
2016,07,26,01,00,19.10
2016,07,26,01,01,19.10
2016,07,26,01,02,19.10
2016,07,26,01,03,19.10
2016,07,26,01,04,19.10
2016,07,26,01,05,19.10
2016,07,26,01,06,19.10
2016,07,26,01,07,19.10
2016,07,26,01,08,19.10
2016,07,26,01,09,19.10
2016,07,26,01,10,19.00
2016,07,26,01,11,19.00
2016,07,26,01,12,19.00
2016,07,26,01,13,19.00
2016,07,26,01,14,19.00
2016,07,26,01,15,19.00
2016,07,26,01,16,19.00
2016,07,26,01,17,19.10
2016,07,26,01,18,19.20
2016,07,26,01,19,19.20
2016,07,26,01,20,19.30
2016,07,26,01,21,19.40
2016,07,26,01,22,19.40
2016,07,26,01,23,19.50
2016,07,26,01,24,19.50
2016,07,26,01,25,19.60
2016,07,26,01,26,19.60
2016,07,26,01,27,19.70
2016,07,26,01,28,19.70
2016,07,26,01,29,19.70
2016,07,26,01,30,19.70
2016,07,26,01,31,19.70
2016,07,26,01,32,19.70
2016,07,26,01,33,19.70
2016,07,26,01,34,19.60
2016,07,26,01,35,19.60
2016,07,26,01,36,19.60
2016,07,26,01,37,19.60
2016,07,26,01,38,19.60
2016,07,26,01,39,19.60
2016,07,26,01,40,19.60
2016,07,26,01,41,19.60
2016,07,26,01,42,19.50
2016,07,26,01,43,19.50
2016,07,26,01,44,19.50
2016,07,26,01,45,19.50
2016,07,26,01,46,19.50
2016,07,26,01,47,19.50
2016,07,26,01,48,19.40
2016,07,26,01,49,19.40
2016,07,26,01,50,19.40
2016,07,26,01,51,19.40
2016,07,26,01,52,19.40
2016,07,26,01,53,19.30
2016,07,26,01,54,19.30
2016,07,26,01,55,19.30
2016,07,26,01,56,19.30
2016,07,26,01,57,19.20
2016,07,26,01,58,19.20
2016,07,26,01,59,19.20
2016,07,26,02,00,19.20
2016,07,26,02,01,19.10
2016,07,26,02,02,19.10
2016,07,26,02,03,19.10
2016,07,26,02,04,19.00
2016,07,26,02,05,19.00
2016,07,26,02,06,19.00
2016,07,26,02,07,19.00
2016,07,26,02,08,18.90
2016,07,26,02,09,18.90
2016,07,26,02,10,18.90
2016,07,26,02,11,18.90
2016,07,26,02,12,18.80
2016,07,26,02,13,18.80
2016,07,26,02,14,18.80
2016,07,26,02,15,18.70
2016,07,26,02,16,18.70
2016,07,26,02,17,18.70
2016,07,26,02,18,18.60
2016,07,26,02,19,18.60
2016,07,26,02,20,18.50
2016,07,26,02,21,18.50
2016,07,26,02,22,18.40
2016,07,26,02,23,18.40
2016,07,26,02,24,18.40
2016,07,26,02,25,18.30
2016,07,26,02,26,18.30
2016,07,26,02,27,18.30
2016,07,26,02,28,18.30
2016,07,26,02,29,18.20
2016,07,26,02,30,18.20
2016,07,26,02,31,18.20
2016,07,26,02,32,18.20
2016,07,26,02,33,18.20
2016,07,26,02,34,18.20
2016,07,26,02,35,18.20
2016,07,26,02,36,18.20
2016,07,26,02,37,18.20
2016,07,26,02,38,18.20
2016,07,26,02,39,18.20
2016,07,26,02,40,18.30
2016,07,26,02,41,18.30
2016,07,26,02,42,18.30
2016,07,26,02,43,18.30
2016,07,26,02,44,18.30
2016,07,26,02,45,18.30
2016,07,26,02,46,18.30
2016,07,26,02,47,18.30
2016,07,26,02,48,18.30
2016,07,26,02,49,18.30
2016,07,26,02,50,18.30
2016,07,26,02,51,18.30
2016,07,26,02,52,18.30
2016,07,26,02,53,18.20
2016,07,26,02,54,18.20
2016,07,26,02,55,18.20
2016,07,26,02,56,18.20
2016,07,26,02,57,18.20
2016,07,26,02,58,18.20
2016,07,26,02,59,18.20
2016,07,26,03,00,18.20
2016,07,26,03,01,18.20
2016,07,26,03,02,18.20
2016,07,26,03,03,18.10
2016,07,26,03,04,18.10
2016,07,26,03,05,18.10
2016,07,26,03,06,18.10
2016,07,26,03,07,18.10
2016,07,26,03,08,18.10
2016,07,26,03,09,18.10
2016,07,26,03,10,18.10
2016,07,26,03,11,18.00
2016,07,26,03,12,18.00
2016,07,26,03,13,18.00
2016,07,26,03,14,17.90
2016,07,26,03,15,17.90
2016,07,26,03,16,17.90
2016,07,26,03,17,17.90
2016,07,26,03,18,17.90
2016,07,26,03,19,17.80
2016,07,26,03,20,17.80
2016,07,26,03,21,17.80
2016,07,26,03,22,17.80
2016,07,26,03,23,17.80
2016,07,26,03,24,17.80
2016,07,26,03,25,17.70
2016,07,26,03,26,17.70
2016,07,26,03,27,17.70
2016,07,26,03,28,17.70
2016,07,26,03,29,17.70
2016,07,26,03,30,17.70
2016,07,26,03,31,17.60
2016,07,26,03,32,17.60
2016,07,26,03,33,17.60
2016,07,26,03,34,17.60
2016,07,26,03,35,17.60
2016,07,26,03,36,17.60
2016,07,26,03,37,17.50
2016,07,26,03,38,17.50
2016,07,26,03,39,17.50
2016,07,26,03,40,17.50
2016,07,26,03,41,17.50
2016,07,26,03,42,17.40
2016,07,26,03,43,17.40
2016,07,26,03,44,17.40
2016,07,26,03,45,17.40
2016,07,26,03,46,17.40
2016,07,26,03,47,17.40
2016,07,26,03,48,17.40
2016,07,26,03,49,17.40
2016,07,26,03,50,17.40
2016,07,26,03,51,17.40
2016,07,26,03,52,17.40
2016,07,26,03,53,17.40
2016,07,26,03,54,17.30
2016,07,26,03,55,17.30
2016,07,26,03,56,17.30
2016,07,26,03,57,17.30
2016,07,26,03,58,17.20
2016,07,26,03,59,17.20
2016,07,26,04,00,17.20
2016,07,26,04,01,17.20
2016,07,26,04,02,17.20
2016,07,26,04,03,17.20
2016,07,26,04,04,17.20
2016,07,26,04,05,17.10
2016,07,26,04,06,17.10
2016,07,26,04,07,17.10
2016,07,26,04,08,17.10
2016,07,26,04,09,17.10
2016,07,26,04,10,17.10
2016,07,26,04,11,17.10
2016,07,26,04,12,17.20
2016,07,26,04,13,17.20
2016,07,26,04,14,17.20
2016,07,26,04,15,17.20
2016,07,26,04,16,17.30
2016,07,26,04,17,17.30
2016,07,26,04,18,17.40
2016,07,26,04,19,17.40
2016,07,26,04,20,17.50
2016,07,26,04,21,17.50
2016,07,26,04,22,17.50
2016,07,26,04,23,17.50
2016,07,26,04,24,17.60
2016,07,26,04,25,17.60
2016,07,26,04,26,17.60
2016,07,26,04,27,17.60
2016,07,26,04,28,17.60
2016,07,26,04,29,17.60
2016,07,26,04,30,17.60
2016,07,26,04,31,17.60
2016,07,26,04,32,17.60
2016,07,26,04,33,17.60
2016,07,26,04,34,17.60
2016,07,26,04,35,17.60
2016,07,26,04,36,17.50
2016,07,26,04,37,17.50
2016,07,26,04,38,17.50
2016,07,26,04,39,17.50
2016,07,26,04,40,17.50
2016,07,26,04,41,17.50
2016,07,26,04,42,17.50
2016,07,26,04,43,17.60
2016,07,26,04,44,17.60
2016,07,26,04,45,17.60
2016,07,26,04,46,17.70
2016,07,26,04,47,17.70
2016,07,26,04,48,17.80
2016,07,26,04,49,17.80
2016,07,26,04,50,17.90
2016,07,26,04,51,17.90
2016,07,26,04,52,18.00
2016,07,26,04,53,18.00
2016,07,26,04,54,18.00
2016,07,26,04,55,18.10
2016,07,26,04,56,18.10
2016,07,26,04,57,18.10
2016,07,26,04,58,18.20
2016,07,26,04,59,18.20
2016,07,26,05,00,18.20
2016,07,26,05,01,18.20
2016,07,26,05,02,18.20
2016,07,26,05,03,18.20
2016,07,26,05,04,18.20
2016,07,26,05,05,18.20
2016,07,26,05,06,18.20
2016,07,26,05,07,18.20
2016,07,26,05,08,18.30
2016,07,26,05,09,18.30
2016,07,26,05,10,18.30
2016,07,26,05,11,18.30
2016,07,26,05,12,18.30
2016,07,26,05,13,18.30
2016,07,26,05,14,18.40
2016,07,26,05,15,18.40
2016,07,26,05,16,18.40
2016,07,26,05,17,18.40
2016,07,26,05,18,18.40
2016,07,26,05,19,18.40
2016,07,26,05,20,18.40
2016,07,26,05,21,18.40
2016,07,26,05,22,18.40
2016,07,26,05,23,18.40
2016,07,26,05,24,18.50
2016,07,26,05,25,18.50
2016,07,26,05,26,18.50
2016,07,26,05,27,18.50
2016,07,26,05,28,18.50
2016,07,26,05,29,18.50
2016,07,26,05,30,18.50
2016,07,26,05,31,18.40
2016,07,26,05,32,18.40
2016,07,26,05,33,18.40
2016,07,26,05,34,18.30
2016,07,26,05,35,18.30
2016,07,26,05,36,18.20
2016,07,26,05,37,18.20
2016,07,26,05,38,18.10
2016,07,26,05,39,18.00
2016,07,26,05,40,17.90
2016,07,26,05,41,17.80
2016,07,26,05,42,17.80
2016,07,26,05,43,17.70
2016,07,26,05,44,17.70
2016,07,26,05,45,17.70
2016,07,26,05,46,17.60
2016,07,26,05,47,17.60
2016,07,26,05,48,17.60
2016,07,26,05,49,17.60
2016,07,26,05,50,17.60
2016,07,26,05,51,17.70
2016,07,26,05,52,17.70
2016,07,26,05,53,17.70
2016,07,26,05,54,17.70
2016,07,26,05,55,17.70
2016,07,26,05,56,17.80
2016,07,26,05,57,17.80
2016,07,26,05,58,17.80
2016,07,26,05,59,17.90
2016,07,26,06,00,17.90
2016,07,26,06,01,18.00
2016,07,26,06,02,18.10
2016,07,26,06,03,18.10
2016,07,26,06,04,18.20
2016,07,26,06,05,18.20
2016,07,26,06,06,18.20
2016,07,26,06,07,18.30
2016,07,26,06,08,18.40
2016,07,26,06,09,18.40
2016,07,26,06,10,18.40
2016,07,26,06,11,18.40
2016,07,26,06,12,18.50
2016,07,26,06,13,18.50
2016,07,26,06,14,18.60
2016,07,26,06,15,18.60
2016,07,26,06,16,18.60
2016,07,26,06,17,18.70
2016,07,26,06,18,18.70
2016,07,26,06,19,18.70
2016,07,26,06,20,18.70
2016,07,26,06,21,18.70
2016,07,26,06,22,18.70
2016,07,26,06,23,18.70
2016,07,26,06,24,18.70
2016,07,26,06,25,18.70
2016,07,26,06,26,18.70
2016,07,26,06,27,18.70
2016,07,26,06,28,18.70
2016,07,26,06,29,18.70
2016,07,26,06,30,18.80
2016,07,26,06,31,18.80
2016,07,26,06,32,18.80
2016,07,26,06,33,18.80
2016,07,26,06,34,18.80
2016,07,26,06,35,18.80
2016,07,26,06,36,18.80
2016,07,26,06,37,18.80
2016,07,26,06,38,18.80
2016,07,26,06,39,18.80
2016,07,26,06,40,18.80
2016,07,26,06,41,18.80
2016,07,26,06,42,18.80
2016,07,26,06,43,18.80
2016,07,26,06,44,18.80
2016,07,26,06,45,18.80
2016,07,26,06,46,18.80
2016,07,26,06,47,18.80
2016,07,26,06,48,18.90
2016,07,26,06,49,18.90
2016,07,26,06,50,18.90
2016,07,26,06,51,18.90
2016,07,26,06,52,18.90
2016,07,26,06,53,18.90
2016,07,26,06,54,18.90
2016,07,26,06,55,18.90
2016,07,26,06,56,18.90
2016,07,26,06,57,18.90
2016,07,26,06,58,18.90
2016,07,26,06,59,18.90
2016,07,26,07,00,18.90
2016,07,26,07,01,18.90
2016,07,26,07,02,18.90
2016,07,26,07,03,18.90
2016,07,26,07,04,18.90
2016,07,26,07,05,18.90
2016,07,26,07,06,18.90
2016,07,26,07,07,18.90
2016,07,26,07,08,18.90
2016,07,26,07,09,18.90
2016,07,26,07,10,18.90
2016,07,26,07,11,18.90
2016,07,26,07,12,18.90
2016,07,26,07,13,18.90
2016,07,26,07,14,19.00
2016,07,26,07,15,19.00
2016,07,26,07,16,19.00
2016,07,26,07,17,19.00
2016,07,26,07,18,19.00
2016,07,26,07,19,19.00
2016,07,26,07,20,19.00
2016,07,26,07,21,19.00
2016,07,26,07,22,19.00
2016,07,26,07,23,19.00
2016,07,26,07,24,19.00
2016,07,26,07,25,19.00
2016,07,26,07,26,19.00
2016,07,26,07,27,19.00
2016,07,26,07,28,19.10
2016,07,26,07,29,19.10
2016,07,26,07,30,19.10
2016,07,26,07,31,19.20
2016,07,26,07,32,19.20
2016,07,26,07,33,19.20
2016,07,26,07,34,19.20
2016,07,26,07,35,19.20
2016,07,26,07,36,19.30
2016,07,26,07,37,19.30
2016,07,26,07,38,19.30
2016,07,26,07,39,19.30
2016,07,26,07,40,19.30
2016,07,26,07,41,19.30
2016,07,26,07,42,19.40
2016,07,26,07,43,19.40
2016,07,26,07,44,19.40
2016,07,26,07,45,19.40
2016,07,26,07,46,19.40
2016,07,26,07,47,19.40
2016,07,26,07,48,19.40
2016,07,26,07,49,19.50
2016,07,26,07,50,19.50
2016,07,26,07,51,19.60
2016,07,26,07,52,19.60
2016,07,26,07,53,19.60
2016,07,26,07,54,19.60
2016,07,26,07,55,19.70
2016,07,26,07,56,19.70
2016,07,26,07,57,19.70
2016,07,26,07,58,19.80
2016,07,26,07,59,19.80
2016,07,26,08,00,19.80
2016,07,26,08,01,19.80
2016,07,26,08,02,19.80
2016,07,26,08,03,19.80
2016,07,26,08,04,19.90
2016,07,26,08,05,19.90
2016,07,26,08,06,20.00
2016,07,26,08,07,20.00
2016,07,26,08,08,20.10
2016,07,26,08,09,20.10
2016,07,26,08,10,20.10
2016,07,26,08,11,20.20
2016,07,26,08,12,20.20
2016,07,26,08,13,20.20
2016,07,26,08,14,20.30
2016,07,26,08,15,20.30
2016,07,26,08,16,20.30
2016,07,26,08,17,20.30
2016,07,26,08,18,20.40
2016,07,26,08,19,20.40
2016,07,26,08,20,20.40
2016,07,26,08,21,20.50
2016,07,26,08,22,20.50
2016,07,26,08,23,20.50
2016,07,26,08,24,20.60
2016,07,26,08,25,20.60
2016,07,26,08,26,20.60
2016,07,26,08,27,20.60
2016,07,26,08,28,20.60
2016,07,26,08,29,20.60
2016,07,26,08,30,20.60
2016,07,26,08,31,20.60
2016,07,26,08,32,20.70
2016,07,26,08,33,20.70
2016,07,26,08,34,20.70
2016,07,26,08,35,20.70
2016,07,26,08,36,20.70
2016,07,26,08,37,20.70
2016,07,26,08,38,20.70
2016,07,26,08,39,20.80
2016,07,26,08,40,20.80
2016,07,26,08,41,20.80
2016,07,26,08,42,20.80
2016,07,26,08,43,20.90
2016,07,26,08,44,20.90
2016,07,26,08,45,21.00
2016,07,26,08,46,21.00
2016,07,26,08,47,21.00
2016,07,26,08,48,20.90
2016,07,26,08,49,21.00
2016,07,26,08,50,21.00
2016,07,26,08,51,21.10
2016,07,26,08,52,21.10
2016,07,26,08,53,21.20
2016,07,26,08,54,21.20
2016,07,26,08,55,21.20
2016,07,26,08,56,21.20
2016,07,26,08,57,21.20
2016,07,26,08,58,21.20
2016,07,26,08,59,21.20
2016,07,26,09,00,21.30
2016,07,26,09,01,21.30
2016,07,26,09,02,21.30
2016,07,26,09,03,21.30
2016,07,26,09,04,21.30
2016,07,26,09,05,21.30
2016,07,26,09,06,21.30
2016,07,26,09,07,21.40
2016,07,26,09,08,21.40
2016,07,26,09,09,21.40
2016,07,26,09,10,21.40
2016,07,26,09,11,21.40
2016,07,26,09,12,21.40
2016,07,26,09,13,21.40
2016,07,26,09,14,21.40
2016,07,26,09,15,21.40
2016,07,26,09,16,21.40
2016,07,26,09,17,21.40
2016,07,26,09,18,21.40
2016,07,26,09,19,21.40
2016,07,26,09,20,21.40
2016,07,26,09,21,21.40
2016,07,26,09,22,21.40
2016,07,26,09,23,21.40
2016,07,26,09,24,21.50
2016,07,26,09,25,21.50
2016,07,26,09,26,21.50
2016,07,26,09,27,21.50
2016,07,26,09,28,21.50
2016,07,26,09,29,21.40
2016,07,26,09,30,21.40
